Overview Statistics Trail Chart Weather Telemetry Raw packets
 

This is the latest recevied weather packets stored in our database for station/object K1TTC. If no packets are shown the sender has not sent any weather packets the latest 10 day(s).

<< 8 9 10 11 12 13 14 >>
Time Temp. Humidity Pressure Rain* Wind** Luminosity Snow
1788486534 20.56° C 76% 1013.7 hPa 0 mm - 0 W/m² -
1788485942 20.56° C 75% 1013.8 hPa 0 mm - 0 W/m² -
1788485331 20.56° C 75% 1013.9 hPa 0 mm - 0 W/m² -
1788484732 20.56° C 75% 1014 hPa 0 mm - 0 W/m² -
1788484130 21.11° C 74% 1014 hPa 0 mm - 0 W/m² -
1788483529 21.11° C 74% 1013.9 hPa 0 mm - 0 W/m² -
1788482928 21.11° C 74% 1013.8 hPa 0 mm - 0 W/m² -
1788482327 21.67° C 73% 1013.5 hPa 0 mm - 0 W/m² -
1788481724 21.67° C 73% 1013.4 hPa 0 mm - 0 W/m² -
1788481196 21.67° C 73% 1013.3 hPa 0 mm - 0 W/m² -
1788480521 22.22° C 72% 1013.2 hPa 0 mm - 0 W/m² -
1788479917 22.22° C 72% 1013.2 hPa 0 mm - 0 W/m² -
1788479317 22.22° C 72% 1013 hPa 0 mm - 0 W/m² -
1788478718 22.78° C 72% 1012.9 hPa 0 mm - 0 W/m² -
1788478120 22.78° C 71% 1013 hPa 0 mm - 0 W/m² -
1788477517 23.33° C 71% 1013.1 hPa 0 mm - 0 W/m² -
1788476915 23.33° C 70% 1013.3 hPa 0 mm - 0 W/m² -
1788476315 23.33° C 70% 1013 hPa 0 mm - 0 W/m² -
1788475713 23.89° C 70% 1012.8 hPa 0 mm - 7 W/m² -
1788475113 23.89° C 70% 1012.8 hPa 0 mm - 18 W/m² -
1788474515 23.89° C 69% 1013.3 hPa 0 mm - 23 W/m² -
1788473911 23.89° C 69% 1013.6 hPa 0 mm - 35 W/m² -
1788473311 23.89° C 69% 1013.4 hPa 0 mm - 32 W/m² -
1788472711 23.89° C 69% 1013.4 hPa 0 mm - 39 W/m² -
1788472110 23.89° C 69% 1013.4 hPa 0 mm - 40 W/m² -

* Rain latest hour (hover to see other rain measurements)
** Current wind speed in m/s (hover to see current wind gust speed)